Weather History for Apalachicola, FL

Change the Weather History Date:

Wednesday, July 3, 2013

  Actual Average Record
Temperature  
Mean Temperature 81 °F 82 °F  
Max Temperature 85 °F 90 °F 98 °F (1998)
Min Temperature 77 °F 73 °F 69 °F (1974)
Degree Days  
Heating Degree Days 0    
Month to date heating degree days 0  
Since 1 June heating degree days 0  
Since 1 July heating degree days 0  
Cooling Degree Days 16    
Month to date cooling degree days 16  
Year to date cooling degree days 903  
Since 1 June cooling degree days 522  
Growing Degree Days 30 (Base 50)    
Moisture  
Dew Point 74 °F    
Average Humidity 81    
Maximum Humidity 91    
Minimum Humidity 70    
Precipitation  
Precipitation 0.57 in 0.21 in 2.93 in (1994)
Month to date precipitation 0.57 0.62  
Year to date precipitation 23.73 25.27  
Sea Level Pressure  
Sea Level Pressure 30.03 in    
Wind  
Wind Speed 14 mph (SSE)    
Max Wind Speed 28 mph    
Max Gust Speed 35 mph    
Visibility 8 miles    
Events Rain    
T = Trace of Precipitation, MM = Missing Value Source: NWS Daily Summary

Daily Weather History Graph

Daily Weather History Graph

Search for Another Location

Airport:

Trip Planner

Search our weather history database for the weather conditions in past years. The results will help you decide how hot, cold, wet, or windy it might be!

Date:

Astronomy

Jul. 03, 2013 Rise Set
Actual Time 6:44 AM EDT 8:44 PM EDT
Civil Twilight 6:16 AM EDT 9:11 PM EDT
Nautical Twilight 5:43 AM EDT 9:44 PM EDT
Astronomical Twilight 5:08 AM EDT 10:19 PM EDT
Moon 3:13 AM EDT (7/3) 5:01 PM EDT (7/3)
Length of Visible Light 14h 54m
Length of Day
14h 00m
Waning Crescent, 18% of the Moon is Illuminated
Jul 3
Waning Crescent
Jul 8
New
Jul 15
First Quarter
Jul 22
Full
Jul 29
Last Quarter

Hourly Weather History & Observations

Time (EDT) Temp. Heat Index Dew Point Humidity Pressure Visibility Wind Dir Wind Speed Gust Speed Precip Events Conditions
12:53 AM 78.1 °F - 71.1 °F 79% 30.04 in 10.0 mi SSW 6.9 mph - 0.00 in   Mostly Cloudy
1:53 AM 78.1 °F - 73.9 °F 87% 30.02 in 10.0 mi Calm Calm - 0.00 in Rain Light Rain
2:53 AM 81.0 °F 86.7 °F 75.0 °F 82% 30.01 in 10.0 mi South 15.0 mph 19.6 mph 0.00 in   Mostly Cloudy
3:01 AM 82.4 °F 88.2 °F 73.4 °F 74% 30.01 in 10.0 mi South 13.8 mph - N/A   Mostly Cloudy
3:13 AM 82.4 °F 88.2 °F 73.4 °F 74% 30.00 in 10.0 mi South 12.7 mph 20.7 mph N/A   Scattered Clouds
3:21 AM 80.6 °F 86.2 °F 75.2 °F 84% 30.00 in 10.0 mi South 12.7 mph - N/A   Mostly Cloudy
3:30 AM 82.4 °F 89.5 °F 75.2 °F 79% 30.00 in 10.0 mi South 16.1 mph 21.9 mph N/A   Scattered Clouds
3:53 AM 82.0 °F 88.6 °F 75.0 °F 79% 29.99 in 10.0 mi South 19.6 mph 24.2 mph N/A   Mostly Cloudy
4:04 AM 80.6 °F 85.4 °F 73.4 °F 79% 29.98 in 8.0 mi South 13.8 mph 26.5 mph 0.00 in Rain Light Rain
4:53 AM 80.1 °F 84.2 °F 73.0 °F 79% 30.00 in 10.0 mi South 15.0 mph - 0.00 in Rain Light Rain
5:22 AM 80.6 °F 85.4 °F 73.4 °F 79% 30.01 in 10.0 mi South 15.0 mph 23.0 mph 0.00 in   Mostly Cloudy
5:29 AM 80.6 °F 85.4 °F 73.4 °F 79% 30.02 in 10.0 mi South 12.7 mph 23.0 mph 0.00 in   Scattered Clouds
5:53 AM 81.0 °F 85.8 °F 73.0 °F 77% 30.02 in 10.0 mi SSE 17.3 mph 23.0 mph 0.00 in   Mostly Cloudy
6:10 AM 80.6 °F 85.4 °F 73.4 °F 79% 30.02 in 10.0 mi South 15.0 mph - N/A   Overcast
6:33 AM 80.6 °F 85.4 °F 73.4 °F 79% 30.01 in 10.0 mi South 15.0 mph - N/A   Overcast
6:53 AM 81.0 °F 86.2 °F 73.9 °F 79% 30.01 in 10.0 mi South 13.8 mph - N/A   Mostly Cloudy
7:53 AM 81.0 °F 86.2 °F 73.9 °F 79% 30.03 in 10.0 mi SSE 17.3 mph - N/A   Mostly Cloudy
8:53 AM 82.0 °F 87.4 °F 73.0 °F 74% 30.04 in 10.0 mi SSE 17.3 mph - N/A   Partly Cloudy
9:50 AM 80.6 °F 86.2 °F 75.2 °F 84% 30.04 in 1.5 mi SSE 23.0 mph 28.8 mph 0.00 in Rain Rain
9:53 AM 79.0 °F - 73.9 °F 84% 30.04 in 1.2 mi South 20.7 mph 28.8 mph 0.10 in Rain Heavy Rain
10:00 AM 78.8 °F - 75.2 °F 89% 30.04 in 3.0 mi South 20.7 mph 27.6 mph 0.02 in Rain Rain
10:20 AM 80.6 °F 85.4 °F 73.4 °F 79% 30.04 in 10.0 mi SSE 17.3 mph 25.3 mph 0.03 in Rain Light Rain
10:53 AM 77.0 °F - 70.0 °F 79% 30.06 in 4.0 mi South 20.7 mph 34.5 mph 0.05 in Rain Light Rain
11:53 AM 79.0 °F - 73.9 °F 84% 30.06 in 3.0 mi South 15.0 mph 23.0 mph 0.06 in Rain Heavy Rain
12:53 PM 80.1 °F 85.1 °F 75.0 °F 85% 30.06 in 6.0 mi South 13.8 mph - 0.09 in Rain Rain
1:11 PM 80.6 °F 86.2 °F 75.2 °F 84% 30.06 in 10.0 mi SSE 13.8 mph - 0.01 in Rain Light Rain
1:28 PM 78.8 °F - 73.4 °F 83% 30.07 in 2.5 mi SSW 16.1 mph 32.2 mph 0.02 in Rain Heavy Rain
1:43 PM 78.8 °F - 73.4 °F 83% 30.06 in 4.0 mi South 18.4 mph 23.0 mph 0.07 in Rain Rain
1:53 PM 79.0 °F - 75.0 °F 88% 30.05 in 4.0 mi South 15.0 mph - 0.10 in Rain Rain
2:53 PM 80.1 °F 84.5 °F 73.9 °F 81% 30.04 in 10.0 mi SSE 12.7 mph - 0.03 in Rain Light Rain
3:53 PM 82.9 °F 88.8 °F 73.0 °F 72% 30.04 in 10.0 mi SSE 11.5 mph - 0.00 in   Mostly Cloudy
4:53 PM 84.0 °F 91.9 °F 75.0 °F 74% 30.02 in 10.0 mi SSE 15.0 mph - N/A   Partly Cloudy
5:53 PM 84.0 °F 91.2 °F 73.9 °F 72% 30.02 in 10.0 mi SSE 12.7 mph - N/A   Partly Cloudy
6:53 PM 82.0 °F 88.6 °F 75.0 °F 79% 30.01 in 10.0 mi SE 9.2 mph - N/A   Scattered Clouds
7:30 PM 78.8 °F - 73.4 °F 83% 30.01 in 1.8 mi SSE 16.1 mph 23.0 mph 0.03 in Rain Heavy Rain
7:38 PM 78.8 °F - 73.4 °F 83% 30.02 in 3.0 mi ESE 5.8 mph - 0.07 in Rain Light Rain
7:53 PM 80.1 °F 84.5 °F 73.9 °F 81% 30.02 in 10.0 mi SE 5.8 mph - 0.07 in   Mostly Cloudy
8:53 PM 80.1 °F 84.5 °F 73.9 °F 81% 30.02 in 10.0 mi SSE 13.8 mph - N/A   Mostly Cloudy
9:49 PM 80.6 °F 86.2 °F 75.2 °F 84% 30.02 in 10.0 mi SSE 10.4 mph - 0.03 in Rain Light Rain
9:53 PM 80.1 °F 85.1 °F 75.0 °F 85% 30.03 in 10.0 mi SE 9.2 mph - 0.03 in   Mostly Cloudy
10:05 PM 80.6 °F 85.4 °F 73.4 °F 79% 30.02 in 10.0 mi SSE 11.5 mph - N/A   Partly Cloudy
10:53 PM 81.0 °F 85.8 °F 73.0 °F 77% 30.04 in 10.0 mi SSE 15.0 mph - 0.00 in   Scattered Clouds
11:53 PM 80.1 °F 84.2 °F 73.0 °F 79% 30.05 in 10.0 mi SSE 10.4 mph - 0.00 in Rain Light Rain